2020 MK
ephemeris date magn radius delta ra dec elong phase
Today5 Sep 202627.22.046 AU2.732 AU13h24m-02°16'38.8°18.0°
2020 MK - 2026-09-05
astro.vanbuitenen.nl


 
-1 year
-1 month
-1 day
Now
+1 day
+1 month
+1 year

The interactive orbit chart above shows the body's path through the solar system and its position at the given date. Green and blue lines are shown perpendicular to the ecliptic plane: Green if the path is above the ecliptic plane, blue if it is below. (Left-click and drag to rotate the view; Right-click and drag to move the view; Use scroll wheel to zoom in our out.)

The orbital elements of 2020 MK are:

            e (Eccentricity)                : 0.6106785
            a (Semimajor axis)              : 1.6783867
            i (Inclination)                 : 9.18054
            Ω (Longitude of ascending node) : 102.33229
            ω (Argument of perihelion)      : 258.53161
            M (Mean anomaly)                : 241.74093
            Epoch                           : 2026 Jun 09

            L (Longitude of perihelion)     : 180.71911
            B (Latitude of perihelion)      : -8.99571
            P (Orbital period in years)     : 2.17            
        

The light curve chart below shows the estimated development of the minor planet's magnitude.


The all-sky chart below shows the path of the minor planet over the same period as the light curve. The current position is marked yellow.





The following chart shows the path of the minor planet in the next few days. The field of view is optimized for (~10x50) binoculars and finderscopes.




Ephemerides:
Date       Time       RA (2000)    DEC (2000)    delta   radius  elong  phase   PA    magn
2026-09-05 00:00 UT   13 24 53.7   -02 16 16     2.732    2.046   38.8   18.0   104   27.2 
2026-09-05 00:36 UT   13 24 56.0   -02 16 33     2.732    2.046   38.8   18.0   104   27.2 
2026-09-06 00:00 UT   13 26 23.6   -02 27 34     2.734    2.040   38.2   17.8   104   27.2 
2026-09-07 00:00 UT   13 27 54.1   -02 38 54     2.736    2.034   37.7   17.6   104   27.1 
2026-09-08 00:00 UT   13 29 25.3   -02 50 15     2.737    2.027   37.2   17.5   104   27.1 
2026-09-09 00:00 UT   13 30 57.3   -03 01 38     2.738    2.021   36.6   17.3   103   27.1 
2026-09-10 00:00 UT   13 32 29.9   -03 13 03     2.740    2.015   36.1   17.1   103   27.1 
2026-09-11 00:00 UT   13 34 03.3   -03 24 29     2.740    2.008   35.5   16.9   103   27.1 
2026-09-12 00:00 UT   13 35 37.3   -03 35 57     2.741    2.002   35.0   16.8   103   27.1 
2026-09-13 00:00 UT   13 37 12.1   -03 47 27     2.742    1.995   34.5   16.6   103   27.1 
2026-09-14 00:00 UT   13 38 47.6   -03 58 57     2.743    1.989   34.0   16.4   103   27.1 
2026-09-15 00:00 UT   13 40 23.8   -04 10 29     2.743    1.982   33.4   16.2   102   27.1 
2026-09-16 00:00 UT   13 42 00.7   -04 22 03     2.743    1.976   32.9   16.0   102   27.0 
2026-09-17 00:00 UT   13 43 38.3   -04 33 37     2.743    1.969   32.4   15.9   102   27.0 
2026-09-18 00:00 UT   13 45 16.6   -04 45 13     2.743    1.963   31.9   15.7   102   27.0 
2026-09-19 00:00 UT   13 46 55.7   -04 56 50     2.743    1.956   31.3   15.5   102   27.0 
2026-09-20 00:00 UT   13 48 35.4   -05 08 29     2.743    1.949   30.8   15.3   101   27.0 
2026-09-21 00:00 UT   13 50 15.9   -05 20 08     2.742    1.942   30.3   15.1   101   27.0 
2026-09-22 00:00 UT   13 51 57.2   -05 31 49     2.741    1.936   29.8   14.9   101   27.0 
2026-09-23 00:00 UT   13 53 39.2   -05 43 30     2.740    1.929   29.3   14.8   101   26.9 
2026-09-24 00:00 UT   13 55 21.9   -05 55 13     2.739    1.922   28.8   14.6   100   26.9 


    Terminology:
            
    delta:  distance between minor planet and earth in AU
    radius: distance between minor planet and sun in AU
    magn:   magnitude (brightness) estimate    
    ra:     right ascension in hours (24h = 360deg)
    dec:    declination in degrees
    elong:  elongation in degrees (angle sun-earth-minor planet)    
    phase:  phase angle in degrees (angle sun-minor planet-earth)        
    AU:     Astronomical Unit (mean distance between earth and sun: 149597870.7 km
    

Orbital elements provided by the MPC (Minor Planet Center).
Calculations by a modified version of AAPlus, a C# implementation of the AA+ project by PJ Naughter from the algorithms presented in the book "Astronomical Algorithms" by Jean Meeus.
NGC2000 dso catalog and star labels from VizieR as provided by the Strasbourg astronomical Data Center.
Tycho2 catalog from the ESO archive.